Location: Newark
(48.1500°N, 2.9667°W)
Time: 15:15:50
(UTC+00:00)

Altair - Pass Details

Date: 28 January 2020
Orbit: 1502 x 1682 km, 47.2° (Epoch: 24 February)

Event Time Altitude Azimuth Distance (km) Brightness Sun altitude
Rises 10:37:14 0° 265° (W) 4,905 9.9 19.4°
Reaches altitude 10° 10:40:22 10° 265° (W) 3,930 9.5 19.6°
Maximum altitude 10:50:33 86° 179° (S) 1,690 8.2 20.3°
Drops below altitude 10° 11:00:43 10° 92° (E) 3,922 10.0 21.0°
Sets 11:03:50 0° 92° (E) 4,894 10.4 21.2°
